Weather History for Oroville, CA

Change the Weather History Date:

Sunday, November 20, 2011

  Actual Average Record
Temperature  
Mean Temperature 48 °F -  
Max Temperature 53 °F 62 °F 76 °F (1971)
Min Temperature 42 °F 40 °F 26 °F (1985)
Degree Days  
Heating Degree Days 18    
Moisture  
Dew Point 44 °F    
Average Humidity 87    
Maximum Humidity 100    
Minimum Humidity 77    
Precipitation  
Precipitation 0.31 in - - ()
Sea Level Pressure  
Sea Level Pressure 29.91 in    
Wind  
Wind Speed 7 mph (East)    
Max Wind Speed 12 mph    
Max Gust Speed -    
Visibility 9 miles    
Events Rain    
Averages and records for this station are not official NWS values.
T = Trace of Precipitation, MM = Missing Value Source: NWS Daily Summary

Daily Weather History Graph

Daily Weather History Graph

Search for Another Location

Airport:

Trip Planner

Search our weather history database for the weather conditions in past years. The results will help you decide how hot, cold, wet, or windy it might be!

Date:

Astronomy

Nov. 20, 2011 Rise Set
Actual Time 6:55 AM PST 4:47 PM PST
Civil Twilight 6:26 AM PST 5:17 PM PST
Nautical Twilight 5:54 AM PST 5:49 PM PST
Astronomical Twilight 5:22 AM PST 6:21 PM PST
Moon 1:31 AM PST (11/20) 1:38 PM PST (11/20)
Length of Visible Light 10h 50m
Length of Day
9h 52m
Waning Crescent, 26% of the Moon is Illuminated
Nov 20
Waning Crescent
Nov 24
New
Dec 2
First Quarter
Dec 10
Full
Dec 17
Last Quarter

Hourly Weather History & Observations

Time (PST) Temp. Windchill Dew Point Humidity Pressure Visibility Wind Dir Wind Speed Gust Speed Precip Events Conditions
12:53 AM 46.0 °F 41.0 °F 43.0 °F 89% 29.78 in 6.0 mi ESE 10.4 mph - 0.12 in Rain Light Rain
1:53 AM 46.0 °F 41.4 °F 43.0 °F 89% 29.76 in 7.0 mi East 9.2 mph - 0.05 in Rain Light Rain
2:53 AM 46.0 °F 41.9 °F 44.1 °F 93% 29.77 in 7.0 mi SE 8.1 mph - 0.07 in Rain Light Rain
3:53 AM 46.0 °F 41.0 °F 44.1 °F 93% 29.77 in 7.0 mi ESE 10.4 mph - 0.03 in Rain Light Rain
4:53 AM 46.9 °F - 44.1 °F 90% 29.79 in 10.0 mi East 8.1 mph - 0.01 in   Overcast
5:53 AM 46.9 °F - 43.0 °F 86% 29.81 in 10.0 mi SE 10.4 mph - 0.01 in   Overcast
6:03 AM 46.4 °F 41.1 °F 42.8 °F 87% 29.80 in 10.0 mi SE 11.5 mph - N/A   Overcast
6:18 AM 46.4 °F 41.5 °F 42.8 °F 87% 29.81 in 10.0 mi SE 10.4 mph - N/A   Overcast
6:53 AM 46.9 °F - 43.0 °F 86% 29.84 in 10.0 mi SE 9.2 mph - N/A   Overcast
7:53 AM 48.0 °F - 43.0 °F 83% 29.86 in 10.0 mi East 5.8 mph - N/A   Overcast
8:39 AM 48.2 °F - 42.8 °F 82% 29.88 in 10.0 mi East 5.8 mph - 0.00 in Rain Light Rain
8:53 AM 48.9 °F - 43.0 °F 80% 29.89 in 10.0 mi ESE 6.9 mph - 0.00 in   Overcast
9:53 AM 48.0 °F - 44.1 °F 86% 29.92 in 7.0 mi ESE 3.5 mph - 0.00 in Rain Light Rain
10:05 AM 48.2 °F - 44.6 °F 87% 29.91 in 8.0 mi Calm Calm - 0.00 in Rain Light Rain
10:22 AM 48.2 °F - 44.6 °F 87% 29.92 in 10.0 mi Calm Calm - 0.00 in Rain Light Rain
10:53 AM 50.0 °F - 44.1 °F 80% 29.92 in 10.0 mi Calm Calm - 0.01 in Rain Light Rain
11:53 AM 51.1 °F - 44.1 °F 77% 29.94 in 10.0 mi Calm Calm - 0.00 in   Overcast
12:46 PM 51.8 °F - 46.4 °F 82% 29.93 in 10.0 mi Calm Calm - 0.00 in   Overcast
12:53 PM 51.1 °F - 46.0 °F 83% 29.94 in 9.0 mi North 3.5 mph - 0.00 in Rain Light Rain
1:40 PM 51.8 °F - 46.4 °F 82% 29.93 in 10.0 mi WNW 3.5 mph - 0.00 in   Overcast
1:53 PM 52.0 °F - 46.9 °F 83% 29.94 in 10.0 mi WNW 4.6 mph - 0.00 in   Overcast
2:39 PM 53.6 °F - 46.4 °F 77% 29.93 in 10.0 mi NNW 3.5 mph - 0.00 in   Mostly Cloudy
2:46 PM 53.6 °F - 46.4 °F 77% 29.93 in 10.0 mi NW 3.5 mph - 0.00 in   Mostly Cloudy
2:53 PM 53.1 °F - 46.0 °F 77% 29.94 in 10.0 mi Calm Calm - 0.00 in   Mostly Cloudy
3:53 PM 52.0 °F - 46.0 °F 80% 29.95 in 10.0 mi NW 3.5 mph - N/A   Clear
4:53 PM 48.9 °F - 46.9 °F 93% 29.96 in 10.0 mi NW 3.5 mph - N/A   Clear
5:53 PM 46.0 °F 44.8 °F 45.0 °F 96% 29.96 in 10.0 mi NW 3.5 mph - N/A   Clear
6:53 PM 45.0 °F 42.6 °F 44.1 °F 97% 29.99 in 10.0 mi NW 4.6 mph - N/A   Clear
7:53 PM 44.1 °F 40.1 °F 43.0 °F 96% 30.02 in 10.0 mi NW 6.9 mph - 0.01 in   Clear
8:53 PM 44.1 °F - 43.0 °F 96% 30.02 in 10.0 mi Calm Calm - N/A   Clear
9:53 PM 43.0 °F 40.3 °F 42.1 °F 97% 30.05 in 9.0 mi South 4.6 mph - N/A   Overcast
10:53 PM 42.1 °F 40.2 °F 41.0 °F 96% 30.06 in 8.0 mi Variable 3.5 mph - N/A   Scattered Clouds
11:53 PM 43.0 °F - 43.0 °F 100% 30.06 in 6.0 mi Calm Calm - N/A   Overcast